Weather History for Selinsgrove, PA

Change the Weather History Date:

Sunday, October 20, 2013

  Actual Average (KIPT) Record (KIPT)
Temperature  
Mean Temperature 48 °F 50 °F  
Max Temperature 62 °F 61 °F 80 °F (1969)
Min Temperature 37 °F 40 °F 20 °F (1972)
Degree Days  
Heating Degree Days 16 15  
Month to date heating degree days 232  
Since 1 July heating degree days 360  
Cooling Degree Days 0 0  
Month to date cooling degree days 1  
Year to date cooling degree days 698  
Moisture  
Dew Point 38 °F    
Average Humidity 69    
Maximum Humidity 93    
Minimum Humidity 38    
Precipitation  
Precipitation 0.00 in 0.10 in 1.70 in (1913)
Month to date precipitation 2.27  
Year to date precipitation 33.46  
Snow  
Snow 0.00 in - - ()
Month to date snowfall  
Since 1 July snowfall  
Since 1 September snowfall  
Snow Depth -    
Sea Level Pressure  
Sea Level Pressure 29.99 in    
Wind  
Wind Speed 2 mph (WSW)    
Max Wind Speed 7 mph    
Max Gust Speed -    
Visibility 10 miles    
Events      
T = Trace of Precipitation, MM = Missing Value Source: NWS Daily Summary

Daily Weather History Graph

Daily Weather History Graph

Search for Another Location

Airport:

Trip Planner

Search our weather history database for the weather conditions in past years. The results will help you decide how hot, cold, wet, or windy it might be!

Date:

Astronomy

Oct. 20, 2013 Rise Set
Actual Time 7:24 AM EDT 6:19 PM EDT
Civil Twilight 6:56 AM EDT 6:47 PM EDT
Nautical Twilight 6:24 AM EDT 7:18 PM EDT
Astronomical Twilight 5:52 AM EDT 7:50 PM EDT
Moon 7:25 PM EDT (10/20) 9:00 AM EDT (10/20)
Length of Visible Light 11h 50m
Length of Day
10h 54m
Full, 97% of the Moon is Illuminated
Oct 20
Full
Oct 26
Last Quarter
Nov 3
New
Nov 10
First Quarter
Nov 17
Full

Hourly Weather History & Observations

Time (EDT) Temp. Windchill Dew Point Humidity Pressure Visibility Wind Dir Wind Speed Gust Speed Precip Events Conditions
12:53 AM 48.9 °F - 39.9 °F 71% 29.86 in 10.0 mi Calm Calm - N/A   Mostly Cloudy
1:53 AM 48.0 °F - 39.0 °F 71% 29.89 in 10.0 mi Calm Calm - N/A   Partly Cloudy
2:53 AM 46.9 °F - 37.9 °F 71% 29.90 in 10.0 mi Calm Calm - N/A   Partly Cloudy
3:53 AM 46.9 °F - 39.0 °F 74% 29.91 in 10.0 mi West 4.6 mph - N/A   Overcast
4:53 AM 46.0 °F 44.8 °F 37.0 °F 71% 29.93 in 10.0 mi WSW 3.5 mph - N/A   Partly Cloudy
5:53 AM 44.1 °F 41.5 °F 36.0 °F 73% 29.95 in 10.0 mi West 4.6 mph - N/A   Clear
6:53 AM 41.0 °F - 36.0 °F 82% 29.96 in 10.0 mi Calm Calm - N/A   Clear
7:53 AM 39.0 °F - 37.0 °F 93% 29.98 in 10.0 mi Calm Calm - N/A   Clear
8:53 AM 46.9 °F - 37.9 °F 71% 30.00 in 10.0 mi WSW 6.9 mph - N/A   Clear
9:53 AM 51.1 °F - 37.9 °F 61% 30.01 in 10.0 mi Variable 3.5 mph - N/A   Clear
10:53 AM 54.0 °F - 37.9 °F 55% 30.02 in 10.0 mi Variable 5.8 mph - N/A   Clear
11:53 AM 57.0 °F - 39.0 °F 51% 30.02 in 10.0 mi Variable 6.9 mph - N/A   Partly Cloudy
12:53 PM 59.0 °F - 37.9 °F 46% 30.02 in 10.0 mi Variable 6.9 mph - N/A   Scattered Clouds
1:53 PM 57.0 °F - 37.0 °F 47% 30.01 in 10.0 mi Calm Calm - N/A   Mostly Cloudy
2:53 PM 60.1 °F - 36.0 °F 41% 30.00 in 10.0 mi Variable 3.5 mph - N/A   Mostly Cloudy
3:53 PM 60.1 °F - 34.0 °F 38% 29.99 in 10.0 mi SW 6.9 mph - N/A   Mostly Cloudy
4:53 PM 57.9 °F - 36.0 °F 44% 30.00 in 10.0 mi SW 4.6 mph - N/A   Scattered Clouds
5:53 PM 54.0 °F - 39.9 °F 59% 30.00 in 10.0 mi Calm Calm - N/A   Scattered Clouds
6:53 PM 48.0 °F - 41.0 °F 77% 30.02 in 10.0 mi SW 3.5 mph - 0.00 in   Mostly Cloudy
7:53 PM 44.1 °F - 41.0 °F 89% 30.04 in 10.0 mi Calm Calm - N/A   Clear
8:53 PM 41.0 °F - 39.0 °F 93% 30.06 in 10.0 mi Calm Calm - N/A   Clear
9:53 PM 39.9 °F - 37.9 °F 93% 30.07 in 10.0 mi Calm Calm - N/A   Clear
10:53 PM 37.9 °F - 36.0 °F 93% 30.08 in 8.0 mi Calm Calm - N/A   Clear
11:53 PM 37.9 °F - 36.0 °F 93% 30.08 in 7.0 mi Calm Calm - N/A   Clear